Location: Newark
(22.3060°N, 114.2134°E)
Time: 17:29:09
(UTC+00:00)

S-56A Canister/Altair - All Passes

Search period start: 28 July 2021 00:00
Search period end: 07 August 2021 00:00
Orbit: 631 x 2501 km, 38.9° (Epoch: 27 July)

Date Brightness Start Highest point End Pass type
(mag) Time Alt. Az. Time Alt. Az. Time Alt. Az.
28 Jul - 05:14:52 10° SSW 05:25:33 44° SE 05:39:07 10° ENE daylight
28 Jul - 07:18:24 10° WSW 07:31:41 77° NNW 07:47:00 10° NE daylight
28 Jul - 09:26:27 10° W 09:40:25 44° NNW 09:53:43 10° NE daylight
28 Jul - 11:36:35 10° WNW 11:50:12 39° N 12:01:02 10° ENE visible
28 Jul - 13:45:10 10° NW 13:58:29 63° NNE 14:07:29 10° ESE visible
28 Jul - 15:53:13 10° WNW 16:03:34 45° SW 16:10:32 10° SSE visible
29 Jul - 04:42:34 10° SSW 04:52:22 37° SE 05:05:00 10° ENE daylight
29 Jul - 06:45:21 10° WSW 06:58:01 84° NNW 07:13:25 10° NE daylight
29 Jul - 08:52:43 10° W 09:06:29 47° NNW 09:20:20 10° NE daylight
29 Jul - 11:02:35 10° WNW 11:16:22 39° N 11:27:51 10° ENE visible
29 Jul - 13:11:19 10° NW 13:25:06 58° NNE 13:34:44 10° ESE visible
29 Jul - 15:19:17 10° WNW 15:30:45 55° SW 15:38:22 10° SSE visible
30 Jul - 04:10:27 10° S 04:19:18 31° SE 04:30:43 10° ENE daylight
30 Jul - 06:12:25 10° SW 06:24:26 89° SE 06:39:47 10° NE daylight
30 Jul - 08:19:06 10° W 08:32:34 49° NNW 08:46:52 10° NE daylight
30 Jul - 10:28:39 10° WNW 10:42:28 39° N 10:54:32 10° ENE daylight
30 Jul - 12:37:28 10° NW 12:51:36 55° NNE 13:01:51 10° E visible
30 Jul - 14:45:22 10° WNW 14:57:49 64° SW 15:06:05 10° SE visible
30 Jul - 16:57:58 10° WSW 17:00:55 12° WSW 17:03:34 10° SW visible
31 Jul - 03:38:33 10° S 03:46:20 25° SE 03:56:15 10° E daylight
31 Jul - 05:39:37 10° SW 05:50:57 82° SE 06:06:02 10° ENE daylight
31 Jul - 07:45:38 10° W 07:58:41 52° NNW 08:13:19 10° NE daylight
31 Jul - 09:54:47 10° WNW 10:08:31 40° N 10:21:09 10° ENE daylight
31 Jul - 12:03:38 10° NW 12:17:59 52° NNE 12:28:53 10° E visible
31 Jul - 14:11:28 10° WNW 14:24:47 74° SW 14:33:42 10° SE visible
31 Jul - 16:22:19 10° W 16:28:16 17° SW 16:33:07 10° SSW visible
01 Aug - 03:06:56 10° S 03:13:27 20° SE 03:21:31 10° E daylight
01 Aug - 05:06:57 10° SW 05:17:35 74° SE 05:32:13 10° ENE daylight
01 Aug - 07:12:19 10° W 07:24:52 55° NNW 07:39:43 10° NE daylight
01 Aug - 09:20:59 10° WNW 09:34:33 40° N 09:47:39 10° ENE daylight
01 Aug - 11:29:49 10° NW 11:44:17 50° NNE 11:55:46 10° E visible
01 Aug - 13:37:36 10° WNW 13:51:36 83° SW 14:01:11 10° SE visible
01 Aug - 15:47:31 10° W 15:55:34 22° SW 16:01:47 10° S visible
02 Aug - 02:35:49 10° SSE 02:40:39 15° SE 02:46:19 10° E daylight
02 Aug - 04:34:25 10° SW 04:44:20 65° SE 04:58:21 10° ENE daylight
02 Aug - 06:39:07 10° WSW 06:51:06 58° NNW 07:06:02 10° NE daylight
02 Aug - 08:47:18 10° WNW 09:00:34 40° N 09:14:04 10° ENE daylight
02 Aug - 10:56:02 10° NW 11:10:30 47° NNE 11:22:34 10° E daylight
02 Aug - 13:03:45 10° NW 13:18:19 89° NE 13:28:34 10° SE visible
02 Aug - 15:13:02 10° WNW 15:22:48 28° SW 15:30:05 10° S visible
03 Aug - 02:06:31 10° SE 02:07:54 10° ESE 02:09:20 10° ESE daylight
03 Aug - 04:02:00 10° SSW 04:11:12 57° SE 04:24:24 10° ENE daylight
03 Aug - 06:06:03 10° WSW 06:17:25 62° NNW 06:32:18 10° NE daylight
03 Aug - 08:13:43 10° WNW 08:26:35 41° N 08:40:24 10° ENE daylight
03 Aug - 10:22:19 10° NW 10:36:39 46° NNE 10:49:13 10° E daylight
03 Aug - 12:29:57 10° NW 12:44:54 82° NNE 12:55:51 10° ESE visible
03 Aug - 14:38:43 10° WNW 14:49:56 35° SW 14:58:08 10° SSE visible
04 Aug - 03:29:43 10° SSW 03:38:10 48° SE 03:50:24 10° ENE daylight
04 Aug - 05:33:07 10° WSW 05:43:50 67° NNW 05:58:32 10° NE daylight
04 Aug - 07:40:15 10° WNW 07:52:38 42° N 08:06:39 10° ENE daylight
04 Aug - 09:48:40 10° WNW 10:02:44 44° NNE 10:15:46 10° E daylight
04 Aug - 11:56:13 10° NW 12:11:23 75° NNE 12:22:59 10° ESE visible
04 Aug - 14:04:32 10° WNW 14:16:58 42° SW 14:26:01 10° SSE visible
05 Aug - 02:57:34 10° SSW 03:05:17 40° SE 03:16:20 10° ENE daylight
05 Aug - 05:00:17 10° WSW 05:10:22 72° NNW 05:24:44 10° NE daylight
05 Aug - 07:06:54 10° WNW 07:18:44 43° N 07:32:50 10° ENE daylight
05 Aug - 09:15:04 10° WNW 09:28:47 43° N 09:42:10 10° ENE daylight
05 Aug - 11:22:31 10° NW 11:37:46 70° NNE 11:50:00 10° ESE visible
05 Aug - 13:30:27 10° WNW 13:43:54 50° SW 13:53:45 10° SSE visible
06 Aug - 02:25:34 10° S 02:32:29 32° SE 02:42:10 10° ENE daylight
06 Aug - 04:27:35 10° WSW 04:37:00 79° NNW 04:50:55 10° NE daylight
06 Aug - 06:33:39 10° W 06:44:55 44° NNW 06:58:58 10° NE daylight
06 Aug - 08:41:34 10° WNW 08:54:48 41° N 09:08:27 10° ENE daylight
06 Aug - 10:48:53 10° NW 11:04:04 65° NNE 11:16:53 10° ESE daylight
06 Aug - 12:56:29 10° WNW 13:10:42 57° SW 13:21:20 10° SSE visible
06 Aug - 15:10:09 10° WSW 15:14:35 13° SW 15:18:33 10° SSW visible
